Location: Archemont
(49.1579°N, 1.7598°E)
Time: 15:02:04
(UTC+00:00)

Spot 1 - Pass Details

Date: 03 February 2023
Orbit: 575 x 772 km, 98.8° (Epoch: 29 March)

Event Time Altitude Azimuth Distance (km) Brightness Sun altitude
Exits shadow 18:51:58 48° 114° (ESE) 758 4.1 -19.7°
Drops below altitude 10° 18:55:39 10° 177° (S) 1,882 6.5 -20.3°
Sets 18:57:51 0° 183° (S) 2,781 7.5 -20.6°
